GW1975 Weather Reports


Display with metric or nautical units.
time (UTC)temp
F
wind
direction
speed
MPH
gust
MPH
rain 1hr
in
rain 24hr
in
rain mn
in
humidity
%
barometer
mb
20260510010735 73 237 0.0 1.0 0.00 0.00 0.00 46 1010.0
20260510010236 74 224 0.0 1.0 0.00 0.00 0.00 44 1010.0
20260510005735 74 248 0.0 1.0 0.00 0.00 0.00 43 1010.0
20260510005235 75 246 0.0 1.0 0.00 0.00 0.00 44 1010.0
20260510004735 75 234 0.0 1.0 0.00 0.00 0.00 41 1010.0
20260510004235 76 251 1.0 2.0 0.00 0.00 0.00 40 1010.0
20260510003735 76 231 0.0 1.0 0.00 0.00 0.00 41 1010.0
20260510003235 77 238 1.0 1.0 0.00 0.00 0.00 39 1009.0
20260510002735 77 242 0.0 2.0 0.00 0.00 0.00 39 1009.0
20260510002235 78 269 0.0 1.0 0.00 0.00 0.00 37 1010.0
20260510001735 78 251 0.0 1.0 0.00 0.00 0.00 38 1009.0
20260510001236 79 254 1.0 2.0 0.00 0.00 0.00 36 1009.0
20260510000735 79 278 1.0 2.0 0.00 0.00 0.00 38 1009.0
20260510000236 79 275 2.0 2.0 0.00 0.00 0.00 36 1009.0
20260509235735 80 265 2.0 3.0 0.00 0.00 0.00 35 1009.0
20260509235235 80 272 2.0 3.0 0.00 0.00 0.00 36 1009.0
20260509234735 80 258 2.0 2.0 0.00 0.00 0.00 35 1009.0
20260509234241 80 260 2.0 3.0 0.00 0.00 0.00 34 1009.0
20260509233735 80 250 3.0 4.0 0.00 0.00 0.00 35 1009.0
20260509233235 80 249 2.0 3.0 0.00 0.00 0.00 35 1009.0
20260509232735 80 276 2.0 5.0 0.00 0.00 0.00 34 1009.0
20260509232236 80 262 3.0 4.0 0.00 0.00 0.00 32 1009.0
20260509231735 80 257 2.0 3.0 0.00 0.00 0.00 34 1009.0
20260509231235 81 255 3.0 5.0 0.00 0.00 0.00 32 1009.0
20260509230735 80 269 4.0 5.0 0.00 0.00 0.00 32 1009.0
20260509230235 81 243 3.0 5.0 0.00 0.00 0.00 34 1009.0
20260509225736 81 267 4.0 5.0 0.00 0.00 0.00 33 1009.0
20260509225235 81 251 2.0 4.0 0.00 0.00 0.00 33 1009.0
20260509224735 81 276 2.0 5.0 0.00 0.00 0.00 34 1009.0
20260509224235 81 247 2.0 5.0 0.00 0.00 0.00 32 1009.0
20260509223735 81 231 2.0 4.0 0.00 0.00 0.00 33 1009.0
20260509223235 80 239 2.0 3.0 0.00 0.00 0.00 35 1009.0
20260509222735 81 267 3.0 6.0 0.00 0.00 0.00 32 1009.0
20260509222236 81 290 5.0 5.0 0.00 0.00 0.00 34 1009.0
20260509221735 81 274 3.0 5.0 0.00 0.00 0.00 32 1009.0
20260509221235 81 259 3.0 4.0 0.00 0.00 0.00 34 1009.0
20260509220736 81 276 2.0 5.0 0.00 0.00 0.00 35 1009.0
20260509220236 80 305 4.0 5.0 0.00 0.00 0.00 36 1009.0
20260509215735 81 240 2.0 5.0 0.00 0.00 0.00 35 1010.0
20260509215235 80 253 4.0 5.0 0.00 0.00 0.00 36 1009.0
20260509214735 81 250 4.0 4.0 0.00 0.00 0.00 36 1009.0
20260509214235 81 277 4.0 4.0 0.00 0.00 0.00 37 1009.0
20260509213736 79 255 4.0 5.0 0.00 0.00 0.00 37 1009.0
20260509213235 80 254 3.0 4.0 0.00 0.00 0.00 36 1009.0
20260509212735 81 258 2.0 5.0 0.00 0.00 0.00 35 1009.0
20260509212235 81 266 3.0 5.0 0.00 0.00 0.00 37 1009.0
20260509211735 81 246 4.0 4.0 0.00 0.00 0.00 36 1009.0
20260509211235 81 282 4.0 5.0 0.00 0.00 0.00 36 1010.0
20260509210735 80 264 2.0 7.0 0.00 0.00 0.00 35 1010.0
20260509210236 80 268 4.0 5.0 0.00 0.00 0.00 36 1010.0
20260509205735 80 246 3.0 4.0 0.00 0.00 0.00 37 1010.0
20260509205235 79 269 1.0 6.0 0.00 0.00 0.00 35 1010.0
20260509204735 80 245 5.0 5.0 0.00 0.00 0.00 36 1010.0
20260509204236 79 238 3.0 4.0 0.00 0.00 0.00 37 1010.0
20260509203735 79 272 3.0 6.0 0.00 0.00 0.00 37 1010.0
20260509203235 79 231 3.0 5.0 0.00 0.00 0.00 37 1010.0
20260509202735 79 280 3.0 4.0 0.00 0.00 0.00 38 1010.0
20260509202235 79 247 3.0 6.0 0.00 0.00 0.00 38 1010.0
20260509201735 78 254 3.0 5.0 0.00 0.00 0.00 38 1010.0
20260509201235 79 263 5.0 7.0 0.00 0.00 0.00 37 1010.0
20260509200735 78 250 3.0 5.0 0.00 0.00 0.00 37 1010.0
20260509200235 77 258 2.0 5.0 0.00 0.00 0.00 39 1010.0
20260509195735 78 255 4.0 6.0 0.00 0.00 0.00 41 1010.0
20260509195236 78 272 4.0 5.0 0.00 0.00 0.00 38 1010.0
20260509194735 77 272 4.0 4.0 0.00 0.00 0.00 42 1010.0
20260509194236 78 286 2.0 5.0 0.00 0.00 0.00 39 1010.0
20260509193739 78 279 3.0 7.0 0.00 0.00 0.00 40 1010.0
20260509193235 78 264 3.0 4.0 0.00 0.00 0.00 41 1010.0
20260509192736 78 253 2.0 4.0 0.00 0.00 0.00 39 1010.0
20260509192236 78 298 4.0 4.0 0.00 0.00 0.00 42 1010.0
20260509191735 77 261 5.0 5.0 0.00 0.00 0.00 43 1010.0
20260509191235 78 260 3.0 6.0 0.00 0.00 0.00 42 1010.0
20260509190735 77 255 3.0 5.0 0.00 0.00 0.00 44 1011.0
20260509190235 77 277 4.0 6.0 0.00 0.00 0.00 43 1011.0
20260509185736 77 251 5.0 7.0 0.00 0.00 0.00 44 1011.0
20260509185235 77 268 2.0 5.0 0.00 0.00 0.00 45 1011.0
20260509184735 76 260 3.0 7.0 0.00 0.00 0.00 42 1010.0
20260509184236 76 272 6.0 7.0 0.00 0.00 0.00 43 1011.0
20260509183735 76 251 3.0 7.0 0.00 0.00 0.00 43 1011.0
20260509183236 76 334 5.0 9.0 0.00 0.00 0.00 45 1011.0
20260509182735 76 271 3.0 6.0 0.00 0.00 0.00 45 1011.0
20260509182235 75 253 3.0 8.0 0.00 0.00 0.00 45 1011.0
20260509181737 75 273 4.0 5.0 0.00 0.00 0.00 47 1011.0
20260509181236 75 236 3.0 7.0 0.00 0.00 0.00 46 1011.0
20260509180735 75 255 2.0 6.0 0.00 0.00 0.00 48 1011.0
20260509180235 75 261 3.0 4.0 0.00 0.00 0.00 47 1011.0
20260509175735 74 228 5.0 6.0 0.00 0.00 0.00 49 1011.0
20260509175237 74 252 4.0 7.0 0.00 0.00 0.00 49 1011.0
20260509174735 73 296 4.0 6.0 0.00 0.00 0.00 50 1011.0
20260509174235 73 232 5.0 6.0 0.00 0.00 0.00 50 1011.0
20260509173735 73 228 3.0 6.0 0.00 0.00 0.00 51 1011.0
20260509173235 73 265 3.0 5.0 0.00 0.00 0.00 51 1011.0
20260509172736 73 290 4.0 6.0 0.00 0.00 0.00 55 1011.0
20260509172235 72 250 1.0 3.0 0.00 0.00 0.00 54 1011.0
20260509171735 72 300 4.0 5.0 0.00 0.00 0.00 53 1012.0
20260509171236 72 262 4.0 7.0 0.00 0.00 0.00 55 1012.0
20260509170246 71 239 3.0 4.0 0.00 0.00 0.00 58 1012.0
20260509165736 70 266 2.0 5.0 0.00 0.00 0.00 57 1012.0
20260509165238 70 279 3.0 6.0 0.00 0.00 0.00 58 1012.0
20260509164735 70 275 4.0 5.0 0.00 0.00 0.00 59 1012.0
20260509164235 69 266 0.0 4.0 0.00 0.00 0.00 61 1012.0
20260509163735 69 234 3.0 5.0 0.00 0.00 0.00 60 1012.0
20260509163235 69 240 1.0 4.0 0.00 0.00 0.00 62 1012.0
20260509162735 69 264 2.0 5.0 0.00 0.00 0.00 61 1012.0
20260509162235 68 265 2.0 5.0 0.00 0.00 0.00 64 1012.0
20260509161735 68 255 3.0 4.0 0.00 0.00 0.00 66 1012.0
20260509161238 68 277 3.0 5.0 0.00 0.00 0.00 65 1012.0
20260509160735 68 240 1.0 4.0 0.00 0.00 0.00 67 1012.0
20260509160235 67 262 5.0 5.0 0.00 0.00 0.00 67 1012.0
20260509155735 67 220 1.0 3.0 0.00 0.00 0.00 68 1012.0
20260509155235 66 244 2.0 3.0 0.00 0.00 0.00 68 1012.0
20260509154735 65 245 1.0 2.0 0.00 0.00 0.00 72 1012.0
20260509154236 66 237 2.0 4.0 0.00 0.00 0.00 72 1012.0
20260509153735 65 265 3.0 4.0 0.00 0.00 0.00 72 1012.0
20260509153235 65 269 3.0 4.0 0.00 0.00 0.00 73 1012.0
20260509152735 65 257 3.0 5.0 0.00 0.00 0.00 73 1012.0
20260509152235 63 274 5.0 5.0 0.00 0.00 0.00 74 1012.0
20260509151735 63 300 2.0 3.0 0.00 0.00 0.00 76 1012.0
20260509151236 62 227 0.0 4.0 0.00 0.00 0.00 78 1012.0
20260509150735 63 256 3.0 5.0 0.00 0.00 0.00 76 1012.0
20260509150235 62 240 1.0 3.0 0.00 0.00 0.00 79 1012.0
20260509145735 61 215 0.0 2.0 0.00 0.00 0.00 79 1012.0
20260509145236 62 228 3.0 6.0 0.00 0.00 0.00 78 1012.0
20260509144735 61 263 2.0 4.0 0.00 0.00 0.00 79 1012.0
20260509144235 61 228 0.0 5.0 0.00 0.00 0.00 81 1011.0
20260509143738 60 224 0.0 3.0 0.00 0.00 0.00 82 1012.0
20260509143235 61 271 3.0 4.0 0.00 0.00 0.00 83 1012.0
20260509142736 61 249 2.0 4.0 0.00 0.00 0.00 82 1012.0
20260509142235 60 289 3.0 4.0 0.00 0.00 0.00 83 1012.0
20260509141735 60 269 2.0 4.0 0.00 0.00 0.00 84 1011.0
20260509141235 59 262 2.0 3.0 0.00 0.00 0.00 84 1012.0
20260509140736 60 254 3.0 4.0 0.00 0.00 0.00 85 1012.0
20260509140235 59 227 1.0 3.0 0.00 0.00 0.00 86 1011.0
20260509135735 58 277 1.0 3.0 0.00 0.00 0.00 86 1012.0
20260509135235 59 278 3.0 4.0 0.00 0.00 0.00 86 1011.0
20260509134735 59 239 1.0 3.0 0.00 0.00 0.00 87 1011.0
20260509134235 58 300 2.0 3.0 0.00 0.00 0.00 88 1011.0
20260509133735 58 278 3.0 6.0 0.00 0.00 0.00 89 1011.0
20260509133235 57 0 4.0 5.0 0.00 0.00 0.00 90 1011.0
20260509132735 58 273 2.0 5.0 0.00 0.00 0.00 91 1011.0
20260509132235 58 314 3.0 6.0 0.00 0.00 0.00 91 1011.0
20260509131735 57 113 2.0 5.0 0.00 0.00 0.00 91 1011.0
20260509131235 57 163 0.0 4.0 0.00 0.00 0.00 92 1011.0
20260509130736 57 209 2.0 5.0 0.00 0.00 0.00 92 1011.0
20260509130235 57 112 4.0 5.0 0.00 0.00 0.00 92 1011.0
20260509125735 57 323 1.0 4.0 0.00 0.00 0.00 92 1011.0
20260509125236 57 273 3.0 3.0 0.00 0.00 0.00 92 1011.0
20260509124736 57 314 2.0 6.0 0.00 0.00 0.00 92 1011.0
20260509124236 57 253 2.0 4.0 0.00 0.00 0.00 92 1011.0
20260509123735 56 250 1.0 6.0 0.00 0.00 0.00 92 1011.0
20260509123236 57 267 3.0 6.0 0.00 0.00 0.00 93 1011.0
20260509122735 57 200 1.0 3.0 0.00 0.00 0.00 93 1011.0
20260509122236 56 256 3.0 5.0 0.00 0.00 0.00 93 1011.0
20260509121735 56 275 0.0 6.0 0.00 0.00 0.00 94 1011.0
20260509121235 57 142 0.0 3.0 0.00 0.00 0.00 94 1011.0
20260509120736 57 282 3.0 6.0 0.00 0.00 0.00 95 1011.0
20260509120236 57 274 3.0 7.0 0.00 0.00 0.00 95 1011.0
20260509115736 56 331 2.0 7.0 0.00 0.00 0.00 96 1011.0
20260509115235 56 327 3.0 6.0 0.00 0.00 0.00 96 1011.0
20260509114735 56 241 2.0 5.0 0.00 0.00 0.00 97 1010.0
20260509114235 56 105 1.0 5.0 0.00 0.00 0.00 97 1011.0
20260509113735 56 217 2.0 4.0 0.00 0.00 0.00 97 1010.0
20260509113236 56 113 2.0 3.0 0.00 0.00 0.00 97 1011.0
20260509112735 56 304 0.0 5.0 0.00 0.00 0.00 97 1010.0
20260509112235 56 117 2.0 4.0 0.00 0.00 0.00 97 1010.0
20260509111735 56 184 2.0 5.0 0.00 0.00 0.00 97 1011.0
20260509111235 56 271 2.0 6.0 0.00 0.00 0.00 97 1010.0
20260509110736 56 321 2.0 5.0 0.00 0.00 0.00 97 1011.0
20260509110235 56 108 0.0 4.0 0.00 0.00 0.00 97 1010.0
20260509105735 56 245 3.0 4.0 0.00 0.00 0.00 97 1010.0
20260509105235 56 250 2.0 5.0 0.00 0.00 0.00 97 1010.0
20260509104735 56 247 2.0 5.0 0.00 0.00 0.00 97 1011.0
20260509104235 56 286 4.0 6.0 0.00 0.00 0.00 97 1011.0
20260509103735 56 306 3.0 6.0 0.00 0.00 0.00 97 1010.0
20260509103235 56 233 4.0 5.0 0.00 0.00 0.00 97 1011.0
20260509102736 56 256 1.0 5.0 0.00 0.00 0.00 97 1010.0
20260509102235 56 239 0.0 3.0 0.00 0.00 0.00 97 1010.0
20260509101736 56 149 3.0 4.0 0.00 0.00 0.00 97 1010.0
20260509101235 56 247 3.0 5.0 0.00 0.00 0.00 97 1010.0
20260509100735 56 264 2.0 4.0 0.00 0.00 0.00 97 1010.0
20260509100235 56 192 2.0 5.0 0.00 0.00 0.00 97 1010.0
20260509095735 56 247 1.0 6.0 0.00 0.00 0.00 97 1010.0
20260509095235 56 335 3.0 7.0 0.00 0.00 0.00 97 1010.0
20260509094735 56 224 2.0 5.0 0.00 0.00 0.00 97 1010.0
20260509094235 57 308 2.0 4.0 0.00 0.00 0.00 97 1010.0
20260509093735 57 81 2.0 5.0 0.00 0.00 0.00 97 1010.0
20260509093235 57 265 2.0 7.0 0.00 0.00 0.00 97 1010.0
20260509092735 57 210 2.0 4.0 0.00 0.00 0.00 97 1010.0
20260509092235 57 115 4.0 6.0 0.00 0.00 0.00 97 1010.0
20260509091735 57 124 5.0 5.0 0.00 0.00 0.00 97 1010.0
20260509091236 57 254 0.0 5.0 0.00 0.00 0.00 97 1010.0
20260509090735 57 128 4.0 5.0 0.00 0.00 0.00 97 1010.0
20260509090235 57 311 5.0 6.0 0.00 0.00 0.00 97 1010.0
20260509085735 57 336 2.0 5.0 0.00 0.00 0.00 97 1009.0
20260509085235 57 300 2.0 6.0 0.00 0.00 0.00 97 1009.0
20260509084736 57 223 2.0 6.0 0.00 0.00 0.00 97 1010.0
20260509084235 57 224 0.0 1.0 0.00 0.00 0.00 97 1010.0
20260509083735 57 276 3.0 3.0 0.00 0.00 0.00 97 1010.0
20260509083236 57 216 0.0 2.0 0.00 0.00 0.00 97 1010.0
20260509082736 57 256 0.0 2.0 0.00 0.00 0.00 97 1010.0
20260509082235 57 232 0.0 2.0 0.00 0.00 0.00 97 1010.0
20260509081735 56 246 0.0 1.0 0.00 0.00 0.00 97 1010.0
20260509081236 56 229 0.0 0.0 0.00 0.00 0.00 97 1010.0
20260509080735 56 243 0.0 1.0 0.00 0.00 0.00 97 1010.0
20260509080235 56 257 0.0 1.0 0.00 0.00 0.00 97 1009.0
20260509075735 56 244 0.0 2.0 0.00 0.00 0.00 97 1010.0
20260509075235 56 222 0.0 1.0 0.00 0.00 0.00 97 1009.0
20260509074735 56 329 0.0 0.0 0.00 0.00 0.00 97 1009.0
20260509074235 56 265 1.0 3.0 0.00 0.00 0.00 97 1009.0
20260509073735 56 230 0.0 1.0 0.00 0.00 0.00 97 1010.0
20260509073236 57 235 1.0 1.0 0.00 0.00 0.00 97 1009.0
20260509072736 57 269 0.0 1.0 0.00 0.00 0.00 96 1010.0
20260509072239 57 226 0.0 0.0 0.00 0.00 0.00 97 1010.0
20260509071735 57 230 0.0 0.0 0.00 0.00 0.00 96 1010.0
20260509071235 57 242 0.0 0.0 0.00 0.00 0.00 96 1009.0
20260509070735 57 224 0.0 0.0 0.00 0.00 0.00 96 1010.0
20260509070235 57 230 0.0 2.0 0.00 0.00 0.00 96 1010.0
20260509065735 57 217 0.0 1.0 0.00 0.00 0.00 96 1009.0
20260509065235 57 253 0.0 1.0 0.00 0.00 0.00 96 1009.0
20260509064735 57 135 0.0 1.0 0.00 0.00 0.00 96 1009.0
20260509064235 57 230 0.0 0.0 0.00 0.00 0.00 96 1009.0
20260509063735 57 242 0.0 1.0 0.00 0.00 0.00 96 1009.0
20260509063235 57 269 0.0 0.0 0.00 0.00 0.00 96 1010.0
20260509062735 57 243 0.0 0.0 0.00 0.00 0.00 96 1009.0
20260509062235 57 243 0.0 2.0 0.00 0.00 0.00 96 1009.0
20260509061735 57 165 0.0 0.0 0.00 0.00 0.00 96 1009.0
20260509061236 57 117 0.0 1.0 0.00 0.00 0.00 96 1009.0
20260509060737 57 235 0.0 0.0 0.00 0.00 0.00 96 1009.0
20260509060235 57 117 0.0 0.0 0.00 0.00 0.00 96 1009.0
20260509055735 57 117 0.0 2.0 0.00 0.00 0.00 96 1009.0
20260509055235 57 142 0.0 0.0 0.00 0.00 0.00 96 1009.0
20260509054737 57 135 0.0 0.0 0.00 0.00 0.00 96 1010.0
20260509054235 57 287 0.0 1.0 0.00 0.00 0.00 96 1010.0
20260509053735 57 309 0.0 1.0 0.00 0.00 0.00 96 1010.0
20260509053235 57 122 1.0 1.0 0.00 0.00 0.00 96 1010.0
20260509052736 57 110 0.0 1.0 0.00 0.00 0.00 96 1010.0
20260509052235 57 224 0.0 0.0 0.00 0.00 0.00 96 1010.0
20260509051735 57 113 0.0 0.0 0.00 0.00 0.00 96 1010.0
20260509051237 57 119 0.0 1.0 0.00 0.00 0.00 96 1010.0
20260509050735 57 126 2.0 3.0 0.00 0.00 0.00 96 1010.0
20260509050235 57 142 1.0 2.0 0.00 0.00 0.00 96 1010.0
20260509045735 57 152 1.0 2.0 0.00 0.00 0.00 96 1010.0
20260509045235 57 147 1.0 1.0 0.00 0.00 0.00 96 1010.0
20260509044735 57 150 1.0 3.0 0.00 0.00 0.00 95 1010.0
20260509044235 57 195 0.0 3.0 0.00 0.00 0.00 95 1010.0
20260509043735 57 140 1.0 3.0 0.00 0.00 0.00 95 1010.0
20260509043237 57 145 1.0 2.0 0.00 0.00 0.00 95 1010.0
20260509042736 57 137 2.0 3.0 0.00 0.00 0.00 95 1010.0
20260509042235 57 148 0.0 1.0 0.00 0.00 0.00 95 1010.0
20260509041735 58 154 2.0 2.0 0.00 0.00 0.00 95 1010.0
20260509041235 58 192 1.0 3.0 0.00 0.00 0.00 95 1010.0
20260509040737 58 136 0.0 2.0 0.00 0.00 0.00 94 1010.0
20260509040235 58 135 0.0 1.0 0.00 0.00 0.00 94 1010.0
20260509035736 58 122 0.0 1.0 0.00 0.00 0.00 94 1011.0
20260509035235 58 242 0.0 1.0 0.00 0.00 0.00 94 1011.0
20260509034736 58 224 0.0 1.0 0.00 0.00 0.00 94 1011.0
20260509034235 57 135 0.0 0.0 0.00 0.00 0.00 93 1011.0
20260509033735 57 89 0.0 1.0 0.00 0.00 0.00 93 1011.0
20260509033236 58 119 0.0 0.0 0.00 0.00 0.00 93 1011.0
20260509032735 58 40 1.0 2.0 0.00 0.00 0.00 93 1011.0
20260509032235 58 217 0.0 2.0 0.00 0.00 0.00 93 1011.0
20260509031738 58 230 0.0 0.0 0.00 0.00 0.00 93 1012.0
20260509031235 58 333 0.0 2.0 0.00 0.00 0.00 93 1012.0
20260509030736 58 62 0.0 0.0 0.00 0.00 0.00 92 1011.0
20260509030235 59 162 0.0 1.0 0.00 0.00 0.00 92 1011.0
20260509025735 59 220 0.0 0.0 0.00 0.00 0.00 91 1011.0
20260509025235 59 117 0.0 2.0 0.00 0.00 0.00 91 1011.0
20260509024735 59 240 0.0 0.0 0.00 0.00 0.00 91 1011.0
20260509024235 59 322 0.0 2.0 0.00 0.00 0.00 90 1011.0
20260509023735 59 164 0.0 0.0 0.00 0.00 0.00 90 1011.0
20260509023236 60 134 1.0 2.0 0.00 0.00 0.00 90 1011.0
20260509022735 60 37 0.0 0.0 0.00 0.00 0.00 87 1012.0
20260509022236 60 235 0.0 1.0 0.00 0.00 0.00 87 1011.0
20260509021735 60 220 0.0 0.0 0.00 0.00 0.00 86 1011.0
20260509021235 60 220 0.0 0.0 0.00 0.00 0.00 85 1011.0
20260509020735 60 130 0.0 0.0 0.00 0.00 0.00 85 1011.0
20260509020235 60 217 0.0 0.0 0.00 0.00 0.00 84 1011.0
20260509015735 60 224 0.0 0.0 0.00 0.00 0.00 83 1011.0
20260509015235 60 351 0.0 1.0 0.00 0.00 0.00 84 1010.0
20260509014735 60 315 0.0 2.0 0.00 0.00 0.00 83 1010.0
20260509014235 60 342 0.0 1.0 0.00 0.00 0.00 84 1010.0
20260509013735 61 336 0.0 2.0 0.00 0.00 0.00 84 1010.0
20260509013236 61 335 3.0 4.0 0.00 0.00 0.00 81 1009.0
20260509012736 61 106 1.0 3.0 0.00 0.00 0.00 81 1009.0
20260509012235 61 35 1.0 3.0 0.00 0.00 0.00 80 1009.0
20260509011736 61 75 3.0 4.0 0.00 0.00 0.00 80 1009.0
20260509011235 61 76 2.0 5.0 0.00 0.00 0.00 80 1010.0